Year,Month,Day,Hour,Minute,Value (Times are PST for temperature in C)
2019,10,26,00,00,4.40
2019,10,26,00,01,4.40
2019,10,26,00,02,4.40
2019,10,26,00,03,4.30
2019,10,26,00,04,4.30
2019,10,26,00,05,4.30
2019,10,26,00,06,4.30
2019,10,26,00,07,4.30
2019,10,26,00,08,4.30
2019,10,26,00,09,4.30
2019,10,26,00,10,4.20
2019,10,26,00,11,4.20
2019,10,26,00,12,4.20
2019,10,26,00,13,4.20
2019,10,26,00,14,4.20
2019,10,26,00,15,4.20
2019,10,26,00,16,4.20
2019,10,26,00,17,4.20
2019,10,26,00,18,4.20
2019,10,26,00,19,4.20
2019,10,26,00,21,4.20
2019,10,26,00,22,4.20
2019,10,26,00,23,4.20
2019,10,26,00,24,4.20
2019,10,26,00,25,4.20
2019,10,26,00,26,4.10
2019,10,26,00,27,4.10
2019,10,26,00,28,4.10
2019,10,26,00,29,4.10
2019,10,26,00,30,4.10
2019,10,26,00,31,4.10
2019,10,26,00,32,4.10
2019,10,26,00,34,4.10
2019,10,26,00,35,4.00
2019,10,26,00,37,4.00
2019,10,26,00,38,3.90
2019,10,26,00,39,3.90
2019,10,26,00,40,3.90
2019,10,26,00,41,3.90
2019,10,26,00,42,3.90
2019,10,26,00,44,3.90
2019,10,26,00,45,3.90
2019,10,26,00,46,3.90
2019,10,26,00,48,3.90
2019,10,26,00,49,3.80
2019,10,26,00,50,3.80
2019,10,26,00,51,3.80
2019,10,26,00,52,3.80
2019,10,26,00,53,3.80
2019,10,26,00,54,3.90
2019,10,26,00,55,3.90
2019,10,26,00,56,3.90
2019,10,26,00,57,3.80
2019,10,26,00,59,3.80
2019,10,26,01,00,3.80
2019,10,26,01,01,3.80
2019,10,26,01,02,3.80
2019,10,26,01,03,3.80
2019,10,26,01,04,3.80
2019,10,26,01,05,3.80
2019,10,26,01,06,3.70
2019,10,26,01,08,3.70
2019,10,26,01,09,3.70
2019,10,26,01,10,3.70
2019,10,26,01,11,3.70
2019,10,26,01,12,3.70
2019,10,26,01,13,3.70
2019,10,26,01,14,3.60
2019,10,26,01,15,3.60
2019,10,26,01,16,3.60
2019,10,26,01,17,3.60
2019,10,26,01,18,3.60
2019,10,26,01,19,3.60
2019,10,26,01,20,3.60
2019,10,26,01,21,3.50
2019,10,26,01,22,3.50
2019,10,26,01,23,3.50
2019,10,26,01,24,3.40
2019,10,26,01,25,3.40
2019,10,26,01,26,3.40
2019,10,26,01,27,3.40
2019,10,26,01,28,3.40
2019,10,26,01,29,3.40
2019,10,26,01,30,3.30
2019,10,26,01,31,3.30
2019,10,26,01,32,3.30
2019,10,26,01,33,3.30
2019,10,26,01,34,3.30
2019,10,26,01,35,3.30
2019,10,26,01,36,3.30
2019,10,26,01,37,3.30
2019,10,26,01,38,3.30
2019,10,26,01,39,3.30
2019,10,26,01,40,3.30
2019,10,26,01,41,3.20
2019,10,26,01,42,3.20
2019,10,26,01,43,3.20
2019,10,26,01,44,3.20
2019,10,26,01,45,3.20
2019,10,26,01,46,3.20
2019,10,26,01,47,3.20
2019,10,26,01,48,3.20
2019,10,26,01,49,3.20
2019,10,26,01,50,3.20
2019,10,26,01,51,3.10
2019,10,26,01,52,3.10
2019,10,26,01,53,3.10
2019,10,26,01,54,3.10
2019,10,26,01,55,3.10
2019,10,26,01,56,3.10
2019,10,26,01,57,3.10
2019,10,26,01,58,3.10
2019,10,26,01,59,3.10
2019,10,26,02,01,3.10
2019,10,26,02,02,3.10
2019,10,26,02,03,3.00
2019,10,26,02,04,3.00
2019,10,26,02,05,3.00
2019,10,26,02,06,3.00
2019,10,26,02,07,2.90
2019,10,26,02,08,2.90
2019,10,26,02,09,2.90
2019,10,26,02,10,2.90
2019,10,26,02,11,2.90
2019,10,26,02,12,2.90
2019,10,26,02,13,2.90
2019,10,26,02,14,2.80
2019,10,26,02,15,2.80
2019,10,26,02,17,2.80
2019,10,26,02,18,2.80
2019,10,26,02,19,2.80
2019,10,26,02,20,2.80
2019,10,26,02,21,2.80
2019,10,26,02,22,2.70
2019,10,26,02,23,2.70
2019,10,26,02,24,2.70
2019,10,26,02,26,2.70
2019,10,26,02,27,2.70
2019,10,26,02,28,2.70
2019,10,26,02,29,2.70
2019,10,26,02,30,2.60
2019,10,26,02,31,2.60
2019,10,26,02,32,2.60
2019,10,26,02,33,2.60
2019,10,26,02,34,2.60
2019,10,26,02,35,2.60
2019,10,26,02,36,2.60
2019,10,26,02,37,2.60
2019,10,26,02,38,2.50
2019,10,26,02,39,2.50
2019,10,26,02,40,2.50
2019,10,26,02,41,2.50
2019,10,26,02,42,2.50
2019,10,26,02,43,2.40
2019,10,26,02,44,2.40
2019,10,26,02,45,2.40
2019,10,26,02,46,2.40
2019,10,26,02,47,2.40
2019,10,26,02,48,2.40
2019,10,26,02,49,2.40
2019,10,26,02,50,2.40
2019,10,26,02,51,2.40
2019,10,26,02,52,2.40
2019,10,26,02,53,2.40
2019,10,26,02,54,2.40
2019,10,26,02,55,2.40
2019,10,26,02,56,2.40
2019,10,26,02,57,2.40
2019,10,26,02,58,2.40
2019,10,26,02,59,2.40
2019,10,26,03,00,2.40
2019,10,26,03,01,2.40
2019,10,26,03,02,2.30
2019,10,26,03,03,2.30
2019,10,26,03,04,2.30
2019,10,26,03,05,2.30
2019,10,26,03,06,2.30
2019,10,26,03,07,2.30
2019,10,26,03,08,2.30
2019,10,26,03,09,2.30
2019,10,26,03,10,2.30
2019,10,26,03,11,2.30
2019,10,26,03,12,2.30
2019,10,26,03,13,2.30
2019,10,26,03,14,2.30
2019,10,26,03,15,2.30
2019,10,26,03,16,2.30
2019,10,26,03,17,2.30
2019,10,26,03,18,2.20
2019,10,26,03,19,2.20
2019,10,26,03,20,2.20
2019,10,26,03,21,2.20
2019,10,26,03,22,2.20
2019,10,26,03,23,2.20
2019,10,26,03,24,2.20
2019,10,26,03,25,2.20
2019,10,26,03,26,2.20
2019,10,26,03,27,2.20
2019,10,26,03,28,2.20
2019,10,26,03,29,2.20
2019,10,26,03,30,2.20
2019,10,26,03,31,2.20
2019,10,26,03,32,2.20
2019,10,26,03,33,2.20
2019,10,26,03,34,2.20
2019,10,26,03,35,2.10
2019,10,26,03,36,2.10
2019,10,26,03,37,2.10
2019,10,26,03,38,2.10
2019,10,26,03,39,2.10
2019,10,26,03,40,2.10
2019,10,26,03,41,2.10
2019,10,26,03,42,2.10
2019,10,26,03,43,2.10
2019,10,26,03,44,2.10
2019,10,26,03,45,2.00
2019,10,26,03,46,2.00
2019,10,26,03,47,2.00
2019,10,26,03,48,1.90
2019,10,26,03,49,1.90
2019,10,26,03,50,1.90
2019,10,26,03,51,1.90
2019,10,26,03,52,1.90
2019,10,26,03,53,1.90
2019,10,26,03,54,1.90
2019,10,26,03,55,1.90
2019,10,26,03,56,1.90
2019,10,26,03,57,1.90
2019,10,26,03,58,1.90
2019,10,26,03,59,1.80
2019,10,26,04,00,1.80
2019,10,26,04,01,1.80
2019,10,26,04,02,1.80
2019,10,26,04,03,1.80
2019,10,26,04,04,1.80
2019,10,26,04,05,1.80
2019,10,26,04,06,1.80
2019,10,26,04,07,1.80
2019,10,26,04,08,1.80
2019,10,26,04,09,1.80
2019,10,26,04,10,1.80
2019,10,26,04,11,1.80
2019,10,26,04,12,1.70
2019,10,26,04,13,1.70
2019,10,26,04,14,1.70
2019,10,26,04,15,1.70
2019,10,26,04,16,1.70
2019,10,26,04,17,1.70
2019,10,26,04,18,1.70
2019,10,26,04,19,1.70
2019,10,26,04,20,1.70
2019,10,26,04,21,1.70
2019,10,26,04,22,1.70
2019,10,26,04,23,1.70
2019,10,26,04,24,1.70
2019,10,26,04,25,1.70
2019,10,26,04,26,1.70
2019,10,26,04,27,1.70
2019,10,26,04,28,1.70
2019,10,26,04,29,1.70
2019,10,26,04,30,1.70
2019,10,26,04,31,1.60
2019,10,26,04,32,1.60
2019,10,26,04,33,1.60
2019,10,26,04,34,1.60
2019,10,26,04,35,1.60
2019,10,26,04,36,1.60
2019,10,26,04,37,1.60
2019,10,26,04,38,1.60
2019,10,26,04,39,1.60
2019,10,26,04,40,1.50
2019,10,26,04,41,1.50
2019,10,26,04,42,1.50
2019,10,26,04,43,1.50
2019,10,26,04,44,1.50
2019,10,26,04,45,1.50
2019,10,26,04,46,1.50
2019,10,26,04,47,1.40
2019,10,26,04,48,1.40
2019,10,26,04,49,1.40
2019,10,26,04,50,1.40
2019,10,26,04,51,1.40
2019,10,26,04,52,1.40
2019,10,26,04,53,1.40
2019,10,26,04,54,1.40
2019,10,26,04,55,1.40
2019,10,26,04,56,1.40
2019,10,26,04,57,1.40
2019,10,26,04,58,1.40
2019,10,26,04,59,1.40
2019,10,26,05,00,1.40
2019,10,26,05,01,1.40
2019,10,26,05,02,1.40
2019,10,26,05,03,1.40
2019,10,26,05,04,1.40
2019,10,26,05,05,1.40
2019,10,26,05,06,1.40
2019,10,26,05,07,1.40
2019,10,26,05,08,1.40
2019,10,26,05,09,1.40
2019,10,26,05,10,1.40
2019,10,26,05,11,1.40
2019,10,26,05,12,1.40
2019,10,26,05,13,1.40
2019,10,26,05,14,1.40
2019,10,26,05,15,1.40
2019,10,26,05,16,1.40
2019,10,26,05,17,1.40
2019,10,26,05,18,1.40
2019,10,26,05,19,1.40
2019,10,26,05,20,1.40
2019,10,26,05,21,1.30
2019,10,26,05,22,1.30
2019,10,26,05,23,1.30
2019,10,26,05,24,1.30
2019,10,26,05,25,1.30
2019,10,26,05,26,1.30
2019,10,26,05,27,1.40
2019,10,26,05,28,1.30
2019,10,26,05,29,1.40
2019,10,26,05,30,1.40
2019,10,26,05,31,1.40
2019,10,26,05,32,1.30
2019,10,26,05,33,1.30
2019,10,26,05,34,1.30
2019,10,26,05,35,1.30
2019,10,26,05,36,1.30
2019,10,26,05,37,1.30
2019,10,26,05,38,1.30
2019,10,26,05,39,1.30
2019,10,26,05,40,1.30
2019,10,26,05,41,1.30
2019,10,26,05,42,1.30
2019,10,26,05,43,1.30
2019,10,26,05,44,1.30
2019,10,26,05,45,1.30
2019,10,26,05,46,1.30
2019,10,26,05,47,1.30
2019,10,26,05,48,1.30
2019,10,26,05,49,1.30
2019,10,26,05,50,1.30
2019,10,26,05,51,1.30
2019,10,26,05,52,1.30
2019,10,26,05,53,1.30
2019,10,26,05,54,1.30
2019,10,26,05,55,1.30
2019,10,26,05,56,1.20
2019,10,26,05,57,1.20
2019,10,26,05,58,1.20
2019,10,26,05,59,1.20
2019,10,26,06,00,1.20
2019,10,26,06,01,1.20
2019,10,26,06,02,1.20
2019,10,26,06,03,1.20
2019,10,26,06,04,1.20
2019,10,26,06,05,1.20
2019,10,26,06,06,1.20
2019,10,26,06,07,1.20
2019,10,26,06,08,1.20
2019,10,26,06,09,1.20
2019,10,26,06,10,1.10
2019,10,26,06,11,1.10
2019,10,26,06,12,1.10
2019,10,26,06,13,1.10
2019,10,26,06,14,1.10
2019,10,26,06,15,1.10
2019,10,26,06,16,1.10
2019,10,26,06,17,1.10
2019,10,26,06,18,1.10
2019,10,26,06,19,1.00
2019,10,26,06,20,1.00
2019,10,26,06,21,1.00
2019,10,26,06,22,1.00
2019,10,26,06,23,1.00
2019,10,26,06,24,1.00
2019,10,26,06,25,1.00
2019,10,26,06,26,1.00
2019,10,26,06,27,1.00
2019,10,26,06,28,0.90
2019,10,26,06,29,0.90
2019,10,26,06,30,1.00
2019,10,26,06,31,0.90
2019,10,26,06,32,0.90
2019,10,26,06,33,0.90
2019,10,26,06,34,0.90
2019,10,26,06,35,0.90
2019,10,26,06,36,0.90
2019,10,26,06,37,0.90
2019,10,26,06,38,0.90
2019,10,26,06,39,0.90
2019,10,26,06,40,0.90
2019,10,26,06,41,0.90
2019,10,26,06,42,0.90
2019,10,26,06,43,0.90
2019,10,26,06,44,0.90
2019,10,26,06,45,0.90
2019,10,26,06,46,0.90
2019,10,26,06,47,0.90
2019,10,26,06,48,0.90
2019,10,26,06,49,0.90
2019,10,26,06,50,0.90
2019,10,26,06,51,0.90
2019,10,26,06,52,0.90
2019,10,26,06,53,0.90
2019,10,26,06,54,0.90
2019,10,26,06,55,0.90
2019,10,26,06,56,0.90
2019,10,26,06,57,0.90
2019,10,26,06,58,1.00
2019,10,26,06,59,0.90
2019,10,26,07,00,1.00
2019,10,26,07,01,1.00
2019,10,26,07,02,1.00
2019,10,26,07,03,1.00
2019,10,26,07,04,1.00
2019,10,26,07,05,1.00
2019,10,26,07,06,1.00
2019,10,26,07,07,1.00
2019,10,26,07,08,1.00
2019,10,26,07,09,0.90
2019,10,26,07,10,0.90
2019,10,26,07,11,0.90
2019,10,26,07,12,0.90
2019,10,26,07,13,0.90
2019,10,26,07,14,0.90
2019,10,26,07,15,0.90
2019,10,26,07,16,0.90
2019,10,26,07,17,0.90
2019,10,26,07,18,0.90
2019,10,26,07,19,0.90
2019,10,26,07,20,0.80
2019,10,26,07,21,0.80
2019,10,26,07,22,0.80
2019,10,26,07,23,0.80
2019,10,26,07,24,0.80
2019,10,26,07,25,0.80
2019,10,26,07,26,0.80
2019,10,26,07,27,0.90
2019,10,26,07,28,0.90
2019,10,26,07,29,0.90
2019,10,26,07,30,0.90
2019,10,26,07,31,0.90
2019,10,26,07,32,0.90
2019,10,26,07,33,0.90
2019,10,26,07,34,0.90
2019,10,26,07,35,0.90
2019,10,26,07,36,0.90
2019,10,26,07,37,0.90
2019,10,26,07,38,0.90
2019,10,26,07,39,0.90
2019,10,26,07,40,0.90
2019,10,26,07,41,0.90
2019,10,26,07,42,0.90
2019,10,26,07,43,0.90
2019,10,26,07,44,0.90
2019,10,26,07,45,0.90
2019,10,26,07,46,0.90
2019,10,26,07,47,0.90
2019,10,26,07,48,0.90
2019,10,26,07,49,0.90
2019,10,26,07,50,0.90
2019,10,26,07,51,0.90
2019,10,26,07,52,0.90
2019,10,26,07,53,1.00
2019,10,26,07,54,1.00
2019,10,26,07,55,1.00
2019,10,26,07,56,1.00
2019,10,26,07,57,1.10
2019,10,26,07,58,1.10
2019,10,26,07,59,1.10
2019,10,26,08,00,1.10
2019,10,26,08,01,1.10
2019,10,26,08,02,1.10
2019,10,26,08,03,1.10
2019,10,26,08,04,1.10
2019,10,26,08,05,1.10
2019,10,26,08,06,1.10
2019,10,26,08,07,1.10
2019,10,26,08,08,1.10
2019,10,26,08,09,1.10
2019,10,26,08,10,1.10
2019,10,26,08,11,1.10
2019,10,26,08,12,1.10
2019,10,26,08,13,1.10
2019,10,26,08,14,1.10
2019,10,26,08,15,1.10
2019,10,26,08,16,1.10
2019,10,26,08,17,1.10
2019,10,26,08,18,1.10
2019,10,26,08,19,1.10
2019,10,26,08,20,1.10
2019,10,26,08,21,1.10
2019,10,26,08,22,1.10
2019,10,26,08,23,1.10
2019,10,26,08,24,1.10
2019,10,26,08,25,1.10
2019,10,26,08,26,1.10
2019,10,26,08,27,1.10
2019,10,26,08,28,1.10
2019,10,26,08,29,1.10
2019,10,26,08,30,1.10
2019,10,26,08,31,1.10
2019,10,26,08,32,1.10
2019,10,26,08,33,1.10
2019,10,26,08,34,1.10
2019,10,26,08,35,1.20
2019,10,26,08,36,1.20
2019,10,26,08,37,1.20
2019,10,26,08,38,1.20
2019,10,26,08,39,1.20
2019,10,26,08,40,1.20
2019,10,26,08,41,1.20
2019,10,26,08,42,1.20
2019,10,26,08,43,1.20
2019,10,26,08,44,1.20
2019,10,26,08,45,1.20
2019,10,26,08,46,1.20
2019,10,26,08,47,1.20
2019,10,26,08,48,1.20
2019,10,26,08,49,1.20
2019,10,26,08,50,1.20
2019,10,26,08,51,1.20
2019,10,26,08,52,1.20
2019,10,26,08,53,1.20
2019,10,26,08,54,1.20
2019,10,26,08,55,1.30
2019,10,26,08,56,1.30
2019,10,26,08,57,1.30
2019,10,26,08,58,1.30
2019,10,26,08,59,1.30
2019,10,26,09,00,1.30
2019,10,26,09,02,1.30
2019,10,26,09,03,1.30
2019,10,26,09,05,1.30
2019,10,26,09,06,1.30
2019,10,26,09,07,1.30
2019,10,26,09,08,1.30
2019,10,26,09,09,1.20
2019,10,26,09,10,1.20
2019,10,26,09,11,1.20
2019,10,26,09,12,1.20
2019,10,26,09,13,1.20
2019,10,26,09,14,1.20
2019,10,26,09,15,1.20
2019,10,26,09,16,1.20
2019,10,26,09,18,1.20
2019,10,26,09,19,1.20
2019,10,26,09,20,1.20
2019,10,26,09,21,1.20
2019,10,26,09,22,1.20
2019,10,26,09,23,1.20
2019,10,26,09,24,1.20
2019,10,26,09,25,1.20
2019,10,26,09,26,1.20
2019,10,26,09,27,1.20
2019,10,26,09,28,1.20
2019,10,26,09,29,1.20
2019,10,26,09,30,1.30
2019,10,26,09,31,1.30
2019,10,26,09,32,1.30
2019,10,26,09,33,1.40
2019,10,26,09,34,1.40
2019,10,26,09,35,1.50
2019,10,26,09,36,1.60
2019,10,26,09,37,1.60
2019,10,26,09,38,1.70
2019,10,26,09,39,1.70
2019,10,26,09,40,1.70
2019,10,26,09,41,1.80
2019,10,26,09,42,1.80
2019,10,26,09,43,1.90
2019,10,26,09,44,1.90
2019,10,26,09,45,2.00
2019,10,26,09,46,2.10
2019,10,26,09,47,2.10
2019,10,26,09,48,2.20
2019,10,26,09,49,2.20
2019,10,26,09,50,2.30
2019,10,26,09,51,2.40
2019,10,26,09,52,2.40
2019,10,26,09,53,2.50
2019,10,26,09,54,2.60
2019,10,26,09,55,2.60
2019,10,26,09,56,2.60
2019,10,26,09,57,2.60
2019,10,26,09,59,2.60
2019,10,26,10,00,2.60
2019,10,26,10,01,2.60
2019,10,26,10,02,2.60
2019,10,26,10,04,2.60
2019,10,26,10,05,2.60
2019,10,26,10,07,2.60
2019,10,26,10,08,2.70
2019,10,26,10,09,2.60
2019,10,26,10,11,2.60
2019,10,26,10,12,2.60
2019,10,26,10,13,2.60
2019,10,26,10,15,2.70
2019,10,26,10,16,2.70
2019,10,26,10,17,2.70
2019,10,26,10,18,2.70
2019,10,26,10,19,2.70
2019,10,26,10,20,2.70
2019,10,26,10,21,2.70
2019,10,26,10,22,2.70
2019,10,26,10,23,2.70
2019,10,26,10,24,2.70
2019,10,26,10,26,2.70
2019,10,26,10,27,2.70
2019,10,26,10,28,2.70
2019,10,26,10,29,2.70
2019,10,26,10,30,2.70
2019,10,26,10,31,2.70
2019,10,26,10,32,2.80
2019,10,26,10,33,2.80
2019,10,26,10,34,2.80
2019,10,26,10,35,2.80
2019,10,26,10,36,2.80
2019,10,26,10,37,2.80
2019,10,26,10,38,2.80
2019,10,26,10,39,2.90
2019,10,26,10,40,2.90
2019,10,26,10,41,2.90
2019,10,26,10,42,3.00
2019,10,26,10,43,3.00
2019,10,26,10,44,3.10
2019,10,26,10,45,3.10
2019,10,26,10,46,3.10
2019,10,26,10,47,3.20
2019,10,26,10,48,3.20
2019,10,26,10,49,3.20
2019,10,26,10,50,3.20
2019,10,26,10,51,3.30
2019,10,26,10,52,3.30
2019,10,26,10,54,3.60
2019,10,26,10,55,3.80
2019,10,26,10,56,3.90
2019,10,26,10,58,3.90
2019,10,26,10,59,4.00
2019,10,26,11,00,4.10
2019,10,26,11,01,4.20
2019,10,26,11,02,4.20
2019,10,26,11,03,4.30
2019,10,26,11,04,4.40
2019,10,26,11,05,4.40
2019,10,26,11,06,4.50
2019,10,26,11,07,4.60
2019,10,26,11,08,4.70
2019,10,26,11,09,4.70
2019,10,26,11,10,4.80
2019,10,26,11,12,4.90
2019,10,26,11,13,5.00
2019,10,26,11,14,5.10
2019,10,26,11,15,5.20
2019,10,26,11,16,5.30
2019,10,26,11,17,5.40
2019,10,26,11,18,5.60
2019,10,26,11,20,5.70
2019,10,26,11,21,5.80
2019,10,26,11,22,5.90
2019,10,26,11,23,6.00
2019,10,26,11,25,6.20
2019,10,26,11,26,6.30
2019,10,26,11,28,6.50
2019,10,26,11,29,6.60
2019,10,26,11,30,6.60
2019,10,26,11,31,6.70
2019,10,26,11,32,6.70
2019,10,26,11,33,6.70
2019,10,26,11,34,6.70
2019,10,26,11,35,6.70
2019,10,26,11,36,6.70
2019,10,26,11,37,6.70
2019,10,26,11,38,6.70
2019,10,26,11,39,6.70
2019,10,26,11,40,6.80
2019,10,26,11,41,6.80
2019,10,26,11,43,6.80
2019,10,26,11,44,6.80
2019,10,26,11,45,6.80
2019,10,26,11,46,6.80
2019,10,26,11,47,6.90
2019,10,26,11,48,6.90
2019,10,26,11,50,7.10
2019,10,26,11,51,7.20
2019,10,26,11,52,7.30
2019,10,26,11,54,7.40
2019,10,26,11,55,7.60
2019,10,26,11,56,7.70
2019,10,26,11,57,7.80
2019,10,26,11,59,7.80
2019,10,26,12,00,7.90
2019,10,26,12,01,8.00
2019,10,26,12,02,8.10
2019,10,26,12,03,8.10
2019,10,26,12,04,8.20
2019,10,26,12,05,8.30
2019,10,26,12,06,8.40
2019,10,26,12,07,8.60
2019,10,26,12,08,8.70
2019,10,26,12,09,8.70
2019,10,26,12,10,8.80
2019,10,26,12,11,8.90
2019,10,26,12,12,9.00
2019,10,26,12,13,9.10
2019,10,26,12,14,9.30
2019,10,26,12,16,9.40
2019,10,26,12,17,9.50
2019,10,26,12,19,9.70
2019,10,26,12,20,9.70
2019,10,26,12,21,9.80
2019,10,26,12,22,9.80
2019,10,26,12,23,9.90
2019,10,26,12,24,10.00
2019,10,26,12,25,10.10
2019,10,26,12,27,10.20
2019,10,26,12,28,10.30
2019,10,26,12,29,10.30
2019,10,26,12,30,10.40
2019,10,26,12,31,10.50
2019,10,26,12,32,10.60
2019,10,26,12,33,10.70
2019,10,26,12,34,10.70
2019,10,26,12,35,10.80
2019,10,26,12,36,10.80
2019,10,26,12,37,10.90
2019,10,26,12,38,10.90
2019,10,26,12,39,10.90
2019,10,26,12,40,10.90
2019,10,26,12,41,11.00
2019,10,26,12,43,11.10
2019,10,26,12,45,11.10
2019,10,26,12,47,11.20
2019,10,26,12,48,11.30
2019,10,26,12,50,11.30
2019,10,26,12,51,11.40
2019,10,26,12,52,11.30
2019,10,26,12,53,11.30
2019,10,26,12,54,11.30
2019,10,26,12,55,11.30
2019,10,26,12,56,11.30
2019,10,26,12,57,11.30
2019,10,26,12,58,11.20
2019,10,26,13,00,11.20
2019,10,26,13,01,11.20
2019,10,26,13,02,11.20
2019,10,26,13,03,11.30
2019,10,26,13,04,11.30
2019,10,26,13,05,11.30
2019,10,26,13,07,11.40
2019,10,26,13,08,11.40
2019,10,26,13,09,11.50
2019,10,26,13,10,11.60
2019,10,26,13,12,11.60
2019,10,26,13,13,11.70
2019,10,26,13,14,11.70
2019,10,26,13,15,11.80
2019,10,26,13,16,11.80
2019,10,26,13,17,11.90
2019,10,26,13,18,11.90
2019,10,26,13,19,12.10
2019,10,26,13,20,12.20
2019,10,26,13,21,12.30
2019,10,26,13,22,12.40
2019,10,26,13,24,12.50
2019,10,26,13,25,12.70
2019,10,26,13,26,12.80
2019,10,26,13,27,12.80
2019,10,26,13,28,12.90
2019,10,26,13,29,13.00
2019,10,26,13,30,13.10
2019,10,26,13,32,13.20
2019,10,26,13,33,13.30
2019,10,26,13,34,13.40
2019,10,26,13,35,13.60
2019,10,26,13,36,13.60
2019,10,26,13,37,13.70
2019,10,26,13,39,13.80
2019,10,26,13,40,13.80
2019,10,26,13,41,14.00
2019,10,26,13,42,14.00
2019,10,26,13,43,14.10
2019,10,26,13,44,14.10
2019,10,26,13,46,14.20
2019,10,26,13,48,14.30
2019,10,26,13,49,14.40
2019,10,26,13,50,14.60
2019,10,26,13,52,14.60
2019,10,26,13,53,14.70
2019,10,26,13,54,14.80
2019,10,26,13,55,14.80
2019,10,26,13,56,14.80
2019,10,26,13,57,14.90
2019,10,26,13,58,14.90
2019,10,26,13,59,15.00
2019,10,26,14,00,15.10
2019,10,26,14,01,15.10
2019,10,26,14,02,15.20
2019,10,26,14,04,15.20
2019,10,26,14,05,15.20
2019,10,26,14,06,15.20
2019,10,26,14,07,15.20
2019,10,26,14,09,15.10
2019,10,26,14,10,15.10
2019,10,26,14,11,15.10
2019,10,26,14,12,15.10
2019,10,26,14,13,15.10
2019,10,26,14,14,15.10
2019,10,26,14,15,15.10
2019,10,26,14,17,15.00
2019,10,26,14,18,14.90
2019,10,26,14,19,14.90
2019,10,26,14,20,14.90
2019,10,26,14,21,14.90
2019,10,26,14,22,14.90
2019,10,26,14,23,14.90
2019,10,26,14,25,14.90
2019,10,26,14,26,14.90
2019,10,26,14,27,15.00
2019,10,26,14,28,15.00
2019,10,26,14,30,15.10
2019,10,26,14,31,15.10
2019,10,26,14,32,15.10
2019,10,26,14,33,15.10
2019,10,26,14,34,15.10
2019,10,26,14,35,15.10
2019,10,26,14,36,15.10
2019,10,26,14,37,15.10
2019,10,26,14,39,15.10
2019,10,26,14,40,15.10
2019,10,26,14,41,15.10
2019,10,26,14,42,15.10
2019,10,26,14,43,15.10
2019,10,26,14,44,15.10
2019,10,26,14,45,15.10
2019,10,26,14,47,15.10
2019,10,26,14,49,15.10
2019,10,26,14,50,15.10
2019,10,26,14,51,15.10
2019,10,26,14,52,15.10
2019,10,26,14,53,15.10
2019,10,26,14,54,15.10
2019,10,26,14,56,15.10
2019,10,26,14,57,15.10
2019,10,26,14,58,15.10
2019,10,26,14,59,15.10
2019,10,26,15,00,15.10
2019,10,26,15,01,15.10
2019,10,26,15,02,15.10
2019,10,26,15,03,15.10
2019,10,26,15,04,15.20
2019,10,26,15,05,15.20
2019,10,26,15,06,15.20
2019,10,26,15,07,15.30
2019,10,26,15,09,15.30
2019,10,26,15,11,15.30
2019,10,26,15,12,15.30
2019,10,26,15,14,15.30
2019,10,26,15,15,15.20
2019,10,26,15,17,15.20
2019,10,26,15,18,15.20
2019,10,26,15,19,15.20
2019,10,26,15,20,15.20
2019,10,26,15,21,15.20
2019,10,26,15,23,15.20
2019,10,26,15,24,15.10
2019,10,26,15,25,15.10
2019,10,26,15,26,15.10
2019,10,26,15,27,15.10
2019,10,26,15,28,15.10
2019,10,26,15,29,15.10
2019,10,26,15,30,15.10
2019,10,26,15,31,15.10
2019,10,26,15,32,15.00
2019,10,26,15,33,15.00
2019,10,26,15,34,15.00
2019,10,26,15,35,15.00
2019,10,26,15,36,15.10
2019,10,26,15,37,15.10
2019,10,26,15,38,15.10
2019,10,26,15,39,15.10
2019,10,26,15,40,15.10
2019,10,26,15,41,15.20
2019,10,26,15,42,15.20
2019,10,26,15,43,15.20
2019,10,26,15,44,15.10
2019,10,26,15,45,15.10
2019,10,26,15,46,15.10
2019,10,26,15,47,15.20
2019,10,26,15,48,15.20
2019,10,26,15,50,15.20
2019,10,26,15,52,15.20
2019,10,26,15,53,15.20
2019,10,26,15,54,15.20
2019,10,26,15,55,15.20
2019,10,26,15,57,15.20
2019,10,26,15,58,15.20
2019,10,26,16,00,15.20
2019,10,26,16,02,15.10
2019,10,26,16,03,15.10
2019,10,26,16,04,15.10
2019,10,26,16,05,15.10
2019,10,26,16,06,15.10
2019,10,26,16,07,15.10
2019,10,26,16,09,15.10
2019,10,26,16,10,15.10
2019,10,26,16,11,15.10
2019,10,26,16,12,15.00
2019,10,26,16,13,15.00
2019,10,26,16,14,15.00
2019,10,26,16,15,15.00
2019,10,26,16,16,15.00
2019,10,26,16,17,15.00
2019,10,26,16,18,15.00
2019,10,26,16,19,15.00
2019,10,26,16,20,15.00
2019,10,26,16,22,15.00
2019,10,26,16,23,15.00
2019,10,26,16,25,14.90
2019,10,26,16,27,14.90
2019,10,26,16,28,14.90
2019,10,26,16,29,14.80
2019,10,26,16,30,14.80
2019,10,26,16,32,14.80
2019,10,26,16,33,14.80
2019,10,26,16,35,14.80
2019,10,26,16,36,14.80
2019,10,26,16,37,14.70
2019,10,26,16,38,14.70
2019,10,26,16,39,14.70
2019,10,26,16,40,14.70
2019,10,26,16,41,14.70
2019,10,26,16,42,14.70
2019,10,26,16,43,14.70
2019,10,26,16,44,14.70
2019,10,26,16,45,14.70
2019,10,26,16,46,14.70
2019,10,26,16,47,14.70
2019,10,26,16,48,14.70
2019,10,26,16,49,14.70
2019,10,26,16,50,14.70
2019,10,26,16,52,14.60
2019,10,26,16,53,14.60
2019,10,26,16,55,14.60
2019,10,26,16,57,14.60
2019,10,26,16,58,14.60
2019,10,26,16,59,14.60
2019,10,26,17,00,14.50
2019,10,26,17,02,14.50
2019,10,26,17,03,14.40
2019,10,26,17,04,14.40
2019,10,26,17,05,14.40
2019,10,26,17,06,14.40
2019,10,26,17,07,14.40
2019,10,26,17,08,14.40
2019,10,26,17,10,14.40
2019,10,26,17,11,14.40
2019,10,26,17,12,14.40
2019,10,26,17,13,14.40
2019,10,26,17,14,14.40
2019,10,26,17,15,14.30
2019,10,26,17,16,14.30
2019,10,26,17,18,14.30
2019,10,26,17,19,14.30
2019,10,26,17,21,14.20
2019,10,26,17,22,14.20
2019,10,26,17,23,14.20
2019,10,26,17,24,14.20
2019,10,26,17,26,14.20
2019,10,26,17,27,14.10
2019,10,26,17,28,14.10
2019,10,26,17,29,14.10
2019,10,26,17,30,14.00
2019,10,26,17,32,14.00
2019,10,26,17,33,13.90
2019,10,26,17,34,13.90
2019,10,26,17,35,13.90
2019,10,26,17,36,13.90
2019,10,26,17,37,13.90
2019,10,26,17,38,13.80
2019,10,26,17,39,13.80
2019,10,26,17,40,13.80
2019,10,26,17,41,13.80
2019,10,26,17,42,13.80
2019,10,26,17,43,13.80
2019,10,26,17,44,13.70
2019,10,26,17,45,13.70
2019,10,26,17,46,13.70
2019,10,26,17,47,13.60
2019,10,26,17,48,13.60
2019,10,26,17,49,13.60
2019,10,26,17,50,13.60
2019,10,26,17,51,13.60
2019,10,26,17,52,13.50
2019,10,26,17,53,13.50
2019,10,26,17,54,13.50
2019,10,26,17,56,13.40
2019,10,26,17,57,13.40
2019,10,26,17,58,13.30
2019,10,26,17,59,13.30
2019,10,26,18,00,13.30
2019,10,26,18,02,13.30
2019,10,26,18,03,13.20
2019,10,26,18,04,13.20
2019,10,26,18,05,13.20
2019,10,26,18,07,13.10
2019,10,26,18,08,13.10
2019,10,26,18,10,13.10
2019,10,26,18,11,12.90
2019,10,26,18,13,12.90
2019,10,26,18,14,12.80
2019,10,26,18,15,12.70
2019,10,26,18,16,12.70
2019,10,26,18,18,12.60
2019,10,26,18,19,12.50
2019,10,26,18,20,12.40
2019,10,26,18,21,12.30
2019,10,26,18,22,12.30
2019,10,26,18,23,12.20
2019,10,26,18,24,12.20
2019,10,26,18,26,12.10
2019,10,26,18,27,12.10
2019,10,26,18,29,12.00
2019,10,26,18,30,11.90
2019,10,26,18,31,11.80
2019,10,26,18,32,11.80
2019,10,26,18,33,11.70
2019,10,26,18,34,11.70
2019,10,26,18,35,11.70
2019,10,26,18,36,11.60
2019,10,26,18,37,11.60
2019,10,26,18,38,11.60
2019,10,26,18,39,11.60
2019,10,26,18,40,11.60
2019,10,26,18,41,11.50
2019,10,26,18,42,11.50
2019,10,26,18,43,11.40
2019,10,26,18,45,11.40
2019,10,26,18,46,11.30
2019,10,26,18,48,11.30
2019,10,26,18,50,11.20
2019,10,26,18,51,11.20
2019,10,26,18,52,11.10
2019,10,26,18,53,11.10
2019,10,26,18,55,11.10
2019,10,26,18,56,10.90
2019,10,26,18,57,10.90
2019,10,26,18,58,10.90
2019,10,26,18,59,10.80
2019,10,26,19,00,10.80
2019,10,26,19,01,10.70
2019,10,26,19,02,10.70
2019,10,26,19,03,10.60
2019,10,26,19,04,10.60
2019,10,26,19,06,10.50
2019,10,26,19,07,10.40
2019,10,26,19,08,10.30
2019,10,26,19,09,10.20
2019,10,26,19,10,10.20
2019,10,26,19,11,10.10
2019,10,26,19,12,10.00
2019,10,26,19,13,9.90
2019,10,26,19,14,9.80
2019,10,26,19,16,9.80
2019,10,26,19,17,9.60
2019,10,26,19,18,9.60
2019,10,26,19,19,9.50
2019,10,26,19,20,9.40
2019,10,26,19,21,9.40
2019,10,26,19,22,9.30
2019,10,26,19,23,9.30